SL-3 R/B (4814 NORAD) Tracking and Keplerian Element Data

This shows tracking and keplerian element data for the satellite.

Feedback or suggestion? Click here.




ElementValue
Catalog4814
NameSL-3 R/B
Epoch Orbit79179
Epoch Day15.89750205
Epoch Year2022
RAAN182.2432
Inclination81.1397
Eccentricity0.0023509
Argument of Perigee79.9788
Mean Anonmoly280.4104
Mean Motion15.37835384
Decay Rate6.723E-05
L11 04814U 70113B 22015.89750205 .00006723 00000+0 17838-3 0 9992
L22 04814 81.1397 182.2432 0023509 79.9788 280.4104 15.37835384791796

Live tracking and technical data element details for SL-3 R/B (NORAD 4814). SL-3 R/B can be tracked NOW for your location showing map with azimuth and elevation plus other details from your city location.

Track the satellite on the map from your city or location and see movement details for azimuth, elevation, latitude, longitude, range, height, and movement on the map or in text.







IsCatalogInMostPopularTable: catalog: 4814, numindb: 258
Update: records affected: 1



GetName: 4814 SL-3 R/B

Hit Count: updated at: Mon, 17 Jan 2022 00:37:06 GMT